| time (UTC) | temp F | wind direction | speed MPH | gust MPH | rain 1hr in | rain 24hr in | rain mn in | humidity % | barometer mb |
| 20260906231523 | 85 | 0.0 | 0.0 | 0.00 | 0.00 | 0.00 | 70 | 1015.5 | |
| 20260906230757 | 84 | 319 | 0.0 | 2.0 | 0.00 | 0.00 | 0.00 | 71 | 1012.2 |
| 20260906230525 | 85 | 319 | 1.0 | 3.0 | 0.00 | 0.00 | 0.00 | 71 | 1015.5 |
| 20260906225527 | 84 | 0.0 | 0.0 | 0.00 | 0.00 | 0.00 | 74 | 1015.9 | |
| 20260906224529 | 84 | 0.0 | 0.0 | 0.00 | 0.00 | 0.00 | 74 | 1016.0 | |
| 20260906223757 | 82 | 56 | 0.0 | 2.0 | 0.00 | 0.00 | 0.00 | 76 | 1013.0 |
| 20260906223531 | 83 | 56 | 1.0 | 2.0 | 0.00 | 0.00 | 0.00 | 76 | 1016.1 |
| 20260906222536 | 82 | 76 | 1.0 | 2.0 | 0.00 | 0.00 | 0.00 | 79 | 1016.2 |
| 20260906221518 | 81 | 97 | 2.0 | 4.0 | 0.00 | 0.00 | 0.00 | 81 | 1016.4 |
| 20260906220757 | 79 | 127 | 0.0 | 2.0 | 0.00 | 0.00 | 0.00 | 83 | 1013.8 |
| 20260906220519 | 80 | 127 | 1.0 | 2.0 | 0.00 | 0.00 | 0.00 | 84 | 1016.6 |
| 20260906215522 | 79 | 101 | 3.0 | 6.0 | 0.00 | 0.00 | 0.00 | 84 | 1016.6 |
| 20260906214524 | 79 | 129 | 3.0 | 5.0 | 0.00 | 0.00 | 0.00 | 85 | 1016.7 |
| 20260906213757 | 79 | 115 | 2.0 | 4.0 | 0.00 | 0.00 | 0.00 | 85 | 1014.1 |
| 20260906213526 | 79 | 116 | 3.0 | 4.0 | 0.00 | 0.00 | 0.00 | 86 | 1016.8 |
| 20260906212528 | 80 | 114 | 3.0 | 6.0 | 0.00 | 0.00 | 0.00 | 86 | 1016.8 |
| 20260906211524 | 80 | 62 | 3.0 | 5.0 | 0.00 | 0.00 | 0.00 | 84 | 1017.0 |
| 20260906210757 | 80 | 125 | 2.0 | 5.0 | 0.00 | 0.00 | 0.00 | 80 | 1014.1 |
| 20260906210520 | 81 | 125 | 3.0 | 6.0 | 0.00 | 0.00 | 0.00 | 80 | 1016.9 |
| 20260906205516 | 81 | 0 | 3.0 | 8.0 | 0.00 | 0.00 | 0.00 | 77 | 1016.9 |
| 20260906204518 | 82 | 354 | 6.0 | 9.0 | 0.00 | 0.00 | 0.00 | 76 | 1016.8 |
| 20260906203757 | 83 | 54 | 5.0 | 10.0 | 0.00 | 0.00 | 0.00 | 70 | 1013.6 |
| 20260906203520 | 84 | 54 | 6.0 | 11.0 | 0.00 | 0.00 | 0.00 | 71 | 1016.7 |
| 20260906202522 | 86 | 5 | 6.0 | 8.0 | 0.00 | 0.00 | 0.00 | 66 | 1016.6 |
| 20260906201525 | 87 | 340 | 5.0 | 7.0 | 0.00 | 0.00 | 0.00 | 63 | 1016.4 |
| 20260906200757 | 87 | 359 | 7.0 | 13.0 | 0.00 | 0.00 | 0.00 | 59 | 1013.0 |
| 20260906200607 | 88 | 359 | 7.0 | 14.0 | 0.00 | 0.00 | 0.00 | 60 | 1016.6 |
| 20260906195524 | 90 | 341 | 8.0 | 12.0 | 0.00 | 0.00 | 0.00 | 58 | 1016.6 |
| 20260906194526 | 91 | 340 | 5.0 | 7.0 | 0.00 | 0.00 | 0.00 | 56 | 1016.6 |
| 20260906193757 | 90 | 340 | 8.0 | 13.0 | 0.00 | 0.00 | 0.00 | 56 | 1012.7 |
| 20260906193547 | 91 | 341 | 8.0 | 14.0 | 0.00 | 0.00 | 0.00 | 56 | 1016.6 |
| 20260906192529 | 93 | 328 | 8.0 | 12.0 | 0.00 | 0.00 | 0.00 | 54 | 1016.8 |
| 20260906191532 | 99 | 335 | 9.0 | 13.0 | 0.00 | 0.00 | 0.00 | 46 | 1016.8 |
| 20260906190757 | 99 | 71 | 5.0 | 11.0 | 0.00 | 0.00 | 0.00 | 39 | 1012.1 |
| 20260906190516 | 100 | 71 | 6.0 | 11.0 | 0.00 | 0.00 | 0.00 | 40 | 1016.9 |
| 20260906185538 | 100 | 21 | 4.0 | 7.0 | 0.00 | 0.00 | 0.00 | 41 | 1017.0 |
| 20260906184520 | 99 | 66 | 4.0 | 7.0 | 0.00 | 0.00 | 0.00 | 41 | 1017.0 |
| 20260906183757 | 98 | 108 | 5.0 | 8.0 | 0.00 | 0.00 | 0.00 | 42 | 1012.4 |
| 20260906183522 | 99 | 109 | 5.0 | 8.0 | 0.00 | 0.00 | 0.00 | 42 | 1017.1 |
| 20260906182518 | 98 | 60 | 4.0 | 6.0 | 0.00 | 0.00 | 0.00 | 42 | 1017.2 |
| 20260906181526 | 98 | 126 | 4.0 | 7.0 | 0.00 | 0.00 | 0.00 | 42 | 1017.4 |
| 20260906180757 | 97 | 114 | 6.0 | 10.0 | 0.00 | 0.00 | 0.00 | 43 | 1013.1 |
| 20260906180529 | 97 | 115 | 6.0 | 11.0 | 0.00 | 0.00 | 0.00 | 44 | 1017.7 |
| 20260906175531 | 96 | 122 | 5.0 | 7.0 | 0.00 | 0.00 | 0.00 | 46 | 1017.9 |
| 20260906174533 | 97 | 95 | 4.0 | 7.0 | 0.00 | 0.00 | 0.00 | 47 | 1018.0 |
| 20260906173757 | 96 | 89 | 3.0 | 6.0 | 0.00 | 0.00 | 0.00 | 48 | 1013.5 |
| 20260906173517 | 97 | 89 | 4.0 | 7.0 | 0.00 | 0.00 | 0.00 | 48 | 1018.1 |
| 20260906172519 | 97 | 339 | 3.0 | 5.0 | 0.00 | 0.00 | 0.00 | 47 | 1018.2 |
| 20260906171521 | 96 | 119 | 3.0 | 6.0 | 0.00 | 0.00 | 0.00 | 49 | 1018.3 |
| 20260906170757 | 94 | 193 | 2.0 | 4.0 | 0.00 | 0.00 | 0.00 | 52 | 1014.1 |
| 20260906170543 | 94 | 194 | 3.0 | 5.0 | 0.00 | 0.00 | 0.00 | 52 | 1018.3 |
| 20260906165525 | 94 | 125 | 3.0 | 6.0 | 0.00 | 0.00 | 0.00 | 51 | 1018.5 |
| 20260906164527 | 95 | 94 | 4.0 | 6.0 | 0.00 | 0.00 | 0.00 | 52 | 1018.5 |
| 20260906163757 | 92 | 170 | 2.0 | 5.0 | 0.00 | 0.00 | 0.00 | 54 | 1014.4 |
| 20260906163529 | 92 | 171 | 3.0 | 5.0 | 0.00 | 0.00 | 0.00 | 54 | 1018.5 |
| 20260906162531 | 92 | 114 | 4.0 | 7.0 | 0.00 | 0.00 | 0.00 | 55 | 1018.5 |
| 20260906161515 | 90 | 83 | 3.0 | 5.0 | 0.00 | 0.00 | 0.00 | 59 | 1018.5 |
| 20260906160757 | 90 | 216 | 3.0 | 5.0 | 0.00 | 0.00 | 0.00 | 58 | 1014.5 |
| 20260906160523 | 91 | 217 | 3.0 | 6.0 | 0.00 | 0.00 | 0.00 | 58 | 1018.5 |
| 20260906155518 | 91 | 165 | 3.0 | 5.0 | 0.00 | 0.00 | 0.00 | 59 | 1018.3 |
| 20260906154521 | 92 | 139 | 3.0 | 6.0 | 0.00 | 0.00 | 0.00 | 57 | 1018.3 |
| 20260906153757 | 92 | 57 | 2.0 | 4.0 | 0.00 | 0.00 | 0.00 | 58 | 1014.3 |
| 20260906153522 | 92 | 58 | 3.0 | 4.0 | 0.00 | 0.00 | 0.00 | 59 | 1018.3 |
| 20260906152524 | 90 | 153 | 3.0 | 4.0 | 0.00 | 0.00 | 0.00 | 63 | 1018.2 |
| 20260906151527 | 88 | 161 | 3.0 | 5.0 | 0.00 | 0.00 | 0.00 | 66 | 1018.2 |
| 20260906150757 | 87 | 35 | 0.0 | 2.0 | 0.00 | 0.00 | 0.00 | 68 | 1014.8 |
| 20260906150529 | 87 | 35 | 1.0 | 2.0 | 0.00 | 0.00 | 0.00 | 69 | 1018.3 |
| 20260906145531 | 87 | 121 | 2.0 | 4.0 | 0.00 | 0.00 | 0.00 | 68 | 1018.1 |
| 20260906144534 | 86 | 123 | 3.0 | 5.0 | 0.00 | 0.00 | 0.00 | 70 | 1018.1 |
| 20260906143757 | 86 | 150 | 3.0 | 4.0 | 0.00 | 0.00 | 0.00 | 68 | 1014.7 |
| 20260906143536 | 86 | 150 | 3.0 | 5.0 | 0.00 | 0.00 | 0.00 | 69 | 1018.1 |
| 20260906142518 | 86 | 140 | 2.0 | 5.0 | 0.00 | 0.00 | 0.00 | 69 | 1018.1 |
| 20260906141520 | 85 | 93 | 2.0 | 3.0 | 0.00 | 0.00 | 0.00 | 71 | 1018.1 |
| 20260906140757 | 83 | 123 | 0.0 | 2.0 | 0.00 | 0.00 | 0.00 | 73 | 1014.8 |
| 20260906140521 | 84 | 124 | 0.0 | 2.0 | 0.00 | 0.00 | 0.00 | 73 | 1018.0 |
| 20260906135523 | 82 | 123 | 2.0 | 3.0 | 0.00 | 0.00 | 0.00 | 77 | 1017.9 |
| 20260906134525 | 80 | 114 | 2.0 | 2.0 | 0.00 | 0.00 | 0.00 | 79 | 1017.8 |
| 20260906133757 | 76 | 123 | 1.0 | 3.0 | 0.00 | 0.00 | 0.00 | 85 | 1015.3 |
| 20260906133521 | 77 | 124 | 1.0 | 4.0 | 0.00 | 0.00 | 0.00 | 85 | 1017.7 |
| 20260906132518 | 75 | 0.0 | 0.0 | 0.00 | 0.00 | 0.00 | 88 | 1017.7 | |
| 20260906131531 | 75 | 0.0 | 0.0 | 0.00 | 0.00 | 0.00 | 89 | 1017.5 | |
| 20260906130757 | 73 | 0 | 0.0 | 0.0 | 0.00 | 0.00 | 0.00 | 91 | 1015.2 |
| 20260906130515 | 74 | 0.0 | 0.0 | 0.00 | 0.00 | 0.00 | 91 | 1017.3 | |
| 20260906125518 | 72 | 0.0 | 0.0 | 0.00 | 0.00 | 0.00 | 95 | 1017.1 | |
| 20260906124532 | 71 | 0.0 | 0.0 | 0.00 | 0.00 | 0.00 | 95 | 1017.0 | |
| 20260906123757 | 71 | 0 | 0.0 | 0.0 | 0.00 | 0.00 | 0.00 | 94 | 1015.2 |
| 20260906123536 | 71 | 0.0 | 0.0 | 0.00 | 0.00 | 0.00 | 95 | 1017.0 | |
| 20260906122519 | 71 | 0.0 | 0.0 | 0.00 | 0.00 | 0.00 | 94 | 1016.9 | |
| 20260906121521 | 71 | 0.0 | 0.0 | 0.00 | 0.00 | 0.00 | 94 | 1016.6 | |
| 20260906120757 | 71 | 0 | 0.0 | 0.0 | 0.00 | 0.00 | 0.00 | 93 | 1014.8 |
| 20260906120523 | 72 | 0.0 | 0.0 | 0.00 | 0.00 | 0.00 | 93 | 1016.6 | |
| 20260906115605 | 72 | 0.0 | 0.0 | 0.00 | 0.00 | 0.00 | 93 | 1016.4 | |
| 20260906114527 | 72 | 124 | 1.0 | 3.0 | 0.00 | 0.00 | 0.00 | 93 | 1016.3 |
| 20260906113757 | 71 | 97 | 0.0 | 2.0 | 0.00 | 0.00 | 0.00 | 93 | 1014.4 |
| 20260906113609 | 72 | 98 | 0.0 | 2.0 | 0.00 | 0.00 | 0.00 | 93 | 1016.2 |
| 20260906112531 | 72 | 0.0 | 0.0 | 0.00 | 0.00 | 0.00 | 93 | 1016.1 | |
| 20260906111515 | 72 | 0.0 | 0.0 | 0.00 | 0.00 | 0.00 | 92 | 1016.1 | |
| 20260906110757 | 71 | 298 | 1.0 | 3.0 | 0.00 | 0.00 | 0.00 | 93 | 1014.1 |
| 20260906110517 | 72 | 299 | 1.0 | 4.0 | 0.00 | 0.00 | 0.00 | 93 | 1015.9 |
| 20260906105539 | 71 | 326 | 0.0 | 2.0 | 0.00 | 0.00 | 0.00 | 94 | 1015.9 |
| 20260906104515 | 71 | 0.0 | 0.0 | 0.00 | 0.00 | 0.00 | 94 | 1016.0 | |
| 20260906103757 | 71 | 0 | 0.0 | 0.0 | 0.00 | 0.00 | 0.00 | 93 | 1014.2 |
| 20260906103523 | 71 | 0.0 | 0.0 | 0.00 | 0.00 | 0.00 | 93 | 1016.0 | |
| 20260906102526 | 71 | 0.0 | 0.0 | 0.00 | 0.00 | 0.00 | 93 | 1015.9 | |
| 20260906101527 | 71 | 0.0 | 0.0 | 0.00 | 0.00 | 0.00 | 93 | 1015.9 | |
| 20260906100757 | 71 | 0 | 0.0 | 0.0 | 0.00 | 0.00 | 0.00 | 92 | 1014.0 |
| 20260906100529 | 72 | 0.0 | 0.0 | 0.00 | 0.00 | 0.00 | 92 | 1015.9 | |
| 20260906095532 | 72 | 0.0 | 0.0 | 0.00 | 0.00 | 0.00 | 91 | 1016.1 | |
| 20260906094516 | 73 | 0.0 | 0.0 | 0.00 | 0.00 | 0.00 | 90 | 1016.1 | |
| 20260906093757 | 72 | 0 | 0.0 | 0.0 | 0.00 | 0.00 | 0.00 | 89 | 1014.1 |
| 20260906093518 | 73 | 0.0 | 0.0 | 0.00 | 0.00 | 0.00 | 89 | 1016.1 | |
| 20260906092540 | 73 | 0.0 | 1.0 | 0.00 | 0.00 | 0.00 | 89 | 1016.1 | |
| 20260906091522 | 74 | 0.0 | 0.0 | 0.00 | 0.00 | 0.00 | 86 | 1016.0 | |
| 20260906090757 | 74 | 0 | 0.0 | 0.0 | 0.00 | 0.00 | 0.00 | 86 | 1013.9 |
| 20260906090524 | 75 | 0.0 | 0.0 | 0.00 | 0.00 | 0.00 | 86 | 1016.1 | |
| 20260906085526 | 75 | 0.0 | 0.0 | 0.00 | 0.00 | 0.00 | 84 | 1016.1 | |
| 20260906084528 | 75 | 113 | 0.0 | 2.0 | 0.00 | 0.00 | 0.00 | 83 | 1016.1 |
| 20260906083757 | 75 | 128 | 0.0 | 2.0 | 0.00 | 0.00 | 0.00 | 83 | 1013.9 |
| 20260906083524 | 76 | 128 | 1.0 | 3.0 | 0.00 | 0.00 | 0.00 | 83 | 1016.1 |
| 20260906082540 | 76 | 124 | 1.0 | 3.0 | 0.00 | 0.00 | 0.00 | 82 | 1016.2 |
| 20260906081516 | 76 | 114 | 2.0 | 4.0 | 0.00 | 0.00 | 0.00 | 81 | 1016.4 |
| 20260906080757 | 76 | 0 | 0.0 | 0.0 | 0.00 | 0.00 | 0.00 | 80 | 1014.0 |
| 20260906080518 | 76 | 0.0 | 0.0 | 0.00 | 0.00 | 0.00 | 80 | 1016.4 | |
| 20260906075520 | 77 | 338 | 0.0 | 1.0 | 0.00 | 0.00 | 0.00 | 79 | 1016.4 |
| 20260906074542 | 77 | 56 | 1.0 | 4.0 | 0.00 | 0.00 | 0.00 | 79 | 1016.7 |
| 20260906073758 | 77 | 117 | 1.0 | 6.0 | 0.00 | 0.00 | 0.00 | 77 | 1014.2 |
| 20260906073524 | 78 | 118 | 2.0 | 7.0 | 0.00 | 0.00 | 0.00 | 78 | 1016.8 |
| 20260906072526 | 78 | 130 | 1.0 | 5.0 | 0.00 | 0.00 | 0.00 | 77 | 1016.9 |
| 20260906071529 | 78 | 142 | 2.0 | 6.0 | 0.00 | 0.00 | 0.00 | 77 | 1016.9 |
| 20260906070757 | 78 | 85 | 2.0 | 6.0 | 0.00 | 0.00 | 0.00 | 76 | 1014.3 |
| 20260906070551 | 79 | 86 | 2.0 | 6.0 | 0.00 | 0.00 | 0.00 | 76 | 1016.9 |
| 20260906065553 | 79 | 147 | 3.0 | 6.0 | 0.00 | 0.00 | 0.00 | 76 | 1017.0 |
| 20260906064517 | 79 | 116 | 3.0 | 5.0 | 0.00 | 0.00 | 0.00 | 77 | 1017.0 |
| 20260906063757 | 79 | 102 | 2.0 | 5.0 | 0.00 | 0.00 | 0.00 | 77 | 1014.3 |
| 20260906063519 | 79 | 103 | 3.0 | 5.0 | 0.00 | 0.00 | 0.00 | 77 | 1017.0 |
| 20260906062521 | 79 | 102 | 2.0 | 4.0 | 0.00 | 0.00 | 0.00 | 77 | 1017.1 |
| 20260906061523 | 80 | 127 | 2.0 | 5.0 | 0.00 | 0.00 | 0.00 | 76 | 1017.3 |
| 20260906060757 | 79 | 97 | 1.0 | 4.0 | 0.00 | 0.00 | 0.00 | 75 | 1014.6 |
| 20260906060525 | 80 | 97 | 1.0 | 5.0 | 0.00 | 0.00 | 0.00 | 76 | 1017.3 |
| 20260906055521 | 80 | 88 | 1.0 | 3.0 | 0.00 | 0.00 | 0.00 | 75 | 1017.3 |
| 20260906054517 | 80 | 117 | 3.0 | 6.0 | 0.00 | 0.00 | 0.00 | 74 | 1017.3 |
| 20260906053757 | 80 | 131 | 3.0 | 4.0 | 0.00 | 0.00 | 0.00 | 73 | 1014.4 |
| 20260906053531 | 80 | 131 | 3.0 | 5.0 | 0.00 | 0.00 | 0.00 | 73 | 1017.2 |
| 20260906052515 | 80 | 147 | 3.0 | 5.0 | 0.00 | 0.00 | 0.00 | 73 | 1017.1 |
| 20260906051517 | 80 | 129 | 2.0 | 5.0 | 0.00 | 0.00 | 0.00 | 73 | 1016.9 |
| 20260906050757 | 80 | 117 | 3.0 | 4.0 | 0.00 | 0.00 | 0.00 | 72 | 1014.5 |
| 20260906050539 | 80 | 117 | 3.0 | 5.0 | 0.00 | 0.00 | 0.00 | 72 | 1017.3 |
| 20260906045541 | 80 | 98 | 3.0 | 6.0 | 0.00 | 0.00 | 0.00 | 72 | 1017.2 |
| 20260906044524 | 80 | 119 | 2.0 | 6.0 | 0.00 | 0.00 | 0.00 | 71 | 1017.2 |
| 20260906043757 | 79 | 91 | 2.0 | 5.0 | 0.00 | 0.00 | 0.00 | 71 | 1014.6 |
| 20260906043525 | 80 | 92 | 2.0 | 5.0 | 0.00 | 0.00 | 0.00 | 71 | 1017.3 |
| 20260906042528 | 78 | 106 | 1.0 | 4.0 | 0.00 | 0.00 | 0.00 | 73 | 1017.2 |
| 20260906041530 | 78 | 114 | 1.0 | 5.0 | 0.00 | 0.00 | 0.00 | 74 | 1017.0 |
| 20260906040757 | 77 | 0 | 0.0 | 0.0 | 0.00 | 0.00 | 0.00 | 75 | 1014.1 |
| 20260906040532 | 78 | 0.0 | 0.0 | 0.00 | 0.00 | 0.00 | 75 | 1016.6 | |
| 20260906035537 | 78 | 0.0 | 0.0 | 0.00 | 0.00 | 0.00 | 74 | 1016.6 | |
| 20260906034518 | 78 | 0.0 | 0.0 | 0.00 | 0.00 | 0.00 | 73 | 1016.6 | |
| 20260906033757 | 78 | 0 | 0.0 | 0.0 | 0.00 | 0.00 | 0.00 | 72 | 1013.9 |
| 20260906033519 | 79 | 0.0 | 0.0 | 0.00 | 0.00 | 0.00 | 73 | 1016.5 | |
| 20260906032541 | 79 | 0.0 | 0.0 | 0.00 | 0.00 | 0.00 | 70 | 1016.4 | |
| 20260906031517 | 80 | 0.0 | 0.0 | 0.00 | 0.00 | 0.00 | 69 | 1016.1 | |
| 20260906030757 | 80 | 0 | 0.0 | 0.0 | 0.00 | 0.00 | 0.00 | 67 | 1013.2 |
| 20260906030521 | 80 | 0.0 | 0.0 | 0.00 | 0.00 | 0.00 | 68 | 1016.0 | |
| 20260906025522 | 81 | 0.0 | 0.0 | 0.00 | 0.00 | 0.00 | 66 | 1015.9 | |
| 20260906024524 | 82 | 0.0 | 0.0 | 0.00 | 0.00 | 0.00 | 64 | 1015.6 | |
| 20260906023757 | 82 | 0 | 0.0 | 0.0 | 0.00 | 0.00 | 0.00 | 62 | 1012.4 |
| 20260906023527 | 83 | 0.0 | 0.0 | 0.00 | 0.00 | 0.00 | 63 | 1015.5 | |
| 20260906022528 | 83 | 125 | 0.0 | 3.0 | 0.00 | 0.00 | 0.00 | 61 | 1015.4 |
| 20260906021531 | 84 | 0.0 | 0.0 | 0.00 | 0.00 | 0.00 | 60 | 1015.2 | |
| 20260906020757 | 84 | 0 | 0.0 | 0.0 | 0.00 | 0.00 | 0.00 | 59 | 1011.8 |
| 20260906020532 | 85 | 0.0 | 0.0 | 0.00 | 0.00 | 0.00 | 59 | 1015.1 | |
| 20260906015556 | 85 | 82 | 1.0 | 3.0 | 0.00 | 0.00 | 0.00 | 58 | 1015.0 |
| 20260906014519 | 86 | 308 | 1.0 | 2.0 | 0.00 | 0.00 | 0.00 | 58 | 1014.9 |
| 20260906013757 | 86 | 2 | 0.0 | 2.0 | 0.00 | 0.00 | 0.00 | 56 | 1011.4 |
| 20260906013522 | 86 | 2 | 1.0 | 3.0 | 0.00 | 0.00 | 0.00 | 57 | 1014.8 |
| 20260906012523 | 87 | 12 | 1.0 | 3.0 | 0.00 | 0.00 | 0.00 | 55 | 1014.7 |
| 20260906011545 | 88 | 55 | 1.0 | 3.0 | 0.00 | 0.00 | 0.00 | 54 | 1014.5 |
| 20260906010757 | 88 | 49 | 1.0 | 2.0 | 0.00 | 0.00 | 0.00 | 53 | 1010.8 |
| 20260906010527 | 89 | 50 | 1.0 | 3.0 | 0.00 | 0.00 | 0.00 | 53 | 1014.5 |
| 20260906005523 | 90 | 67 | 1.0 | 3.0 | 0.00 | 0.00 | 0.00 | 53 | 1014.7 |
| 20260906004519 | 90 | 42 | 2.0 | 4.0 | 0.00 | 0.00 | 0.00 | 52 | 1014.6 |
| 20260906003757 | 91 | 355 | 2.0 | 4.0 | 0.00 | 0.00 | 0.00 | 51 | 1010.6 |
| 20260906003533 | 91 | 355 | 3.0 | 4.0 | 0.00 | 0.00 | 0.00 | 51 | 1014.5 |
| 20260906002537 | 92 | 357 | 2.0 | 4.0 | 0.00 | 0.00 | 0.00 | 50 | 1014.5 |
| 20260906001539 | 92 | 75 | 3.0 | 4.0 | 0.00 | 0.00 | 0.00 | 50 | 1014.3 |
| 20260906000757 | 92 | 39 | 4.0 | 6.0 | 0.00 | 0.00 | 0.00 | 49 | 1010.2 |
| 20260906000521 | 93 | 39 | 5.0 | 7.0 | 0.00 | 0.00 | 0.00 | 49 | 1014.3 |
| 20260905235523 | 94 | 70 | 5.0 | 9.0 | 0.00 | 0.00 | 0.00 | 47 | 1014.3 |
| 20260905234525 | 94 | 141 | 5.0 | 9.0 | 0.00 | 0.00 | 0.00 | 47 | 1014.2 |
| 20260905233757 | 94 | 150 | 4.0 | 7.0 | 0.00 | 0.00 | 0.00 | 46 | 1009.9 |
| 20260905233527 | 94 | 151 | 4.0 | 7.0 | 0.00 | 0.00 | 0.00 | 47 | 1014.1 |
| 20260905232529 | 94 | 103 | 4.0 | 7.0 | 0.00 | 0.00 | 0.00 | 47 | 1014.1 |